This is the latest recevied weather packets stored in our database for station/object KB9HUO. If no packets are shown the sender has not sent any weather packets the latest 1 day(s).
| Time | Temp. | Humidity | Pressure | Rain* | Wind** | Luminosity | Snow |
|---|---|---|---|---|---|---|---|
| 1777980195 | 13.33° C | 96% | 1009.2 hPa | 0 mm | 0.89 m/s, 204° | 11 W/m² | - |
| 1777979890 | 13.33° C | 96% | 1009.5 hPa | 1.27 mm | 0.89 m/s, 201° | 12 W/m² | - |
| 1777979586 | 13.33° C | 96% | 1009.5 hPa | 1.27 mm | 0.45 m/s, 220° | 7 W/m² | - |
| 1777979282 | 13.33° C | 96% | 1009.7 hPa | 1.78 mm | 0.89 m/s, 219° | 3 W/m² | - |
| 1777978980 | 13.33° C | 96% | 1009.9 hPa | 3.05 mm | 0.89 m/s, 206° | 2 W/m² | - |
| 1777978676 | 13.33° C | 96% | 1010.1 hPa | 4.83 mm | 0.89 m/s, 210° | 1 W/m² | - |
| 1777978372 | 13.89° C | 96% | 1010.3 hPa | 4.83 mm | 0.45 m/s, 216° | 0 W/m² | - |
| 1777978068 | 13.89° C | 95% | 1010.5 hPa | 4.32 mm | 0.45 m/s, 217° | 0 W/m² | - |
| 1777977766 | 13.89° C | 95% | 1010.8 hPa | 4.83 mm | 0.45 m/s, 226° | 0 W/m² | - |
| 1777977462 | 13.89° C | 95% | 1010.6 hPa | 3.05 mm | 0.45 m/s, 229° | 0 W/m² | - |
| 1777977160 | 13.89° C | 95% | 1010.4 hPa | 0 mm | 0 m/s | 0 W/m² | - |
| 1777976857 | 13.89° C | 95% | 1010.5 hPa | 0 mm | 0 m/s | 0 W/m² | - |
| 1777976555 | 13.33° C | 95% | 1010.4 hPa | 0 mm | 0 m/s | 0 W/m² | - |
| 1777976254 | 13.89° C | 95% | 1010.3 hPa | 0 mm | 0 m/s | 0 W/m² | - |
| 1777975950 | 13.89° C | 94% | 1010.3 hPa | 0 mm | 0 m/s | 0 W/m² | - |
| 1777975646 | 13.89° C | 94% | 1010.4 hPa | 0 mm | 0 m/s | 0 W/m² | - |
| 1777975343 | 13.89° C | 94% | 1010.2 hPa | 1.27 mm | 0 m/s | 0 W/m² | - |
| 1777975044 | 13.89° C | 94% | 1010.2 hPa | 4.83 mm | 0 m/s | 0 W/m² | - |
| 1777974742 | 13.89° C | 93% | 1010.3 hPa | 4.83 mm | 0 m/s | 0 W/m² | - |
| 1777974437 | 13.89° C | 93% | 1010.3 hPa | 3.05 mm | 0 m/s | 0 W/m² | - |
| 1777974134 | 13.89° C | 93% | 1010.1 hPa | 3.05 mm | 0 m/s | 0 W/m² | - |
| 1777973830 | 13.89° C | 93% | 1010.2 hPa | 1.27 mm | 0 m/s | 0 W/m² | - |
| 1777973528 | 13.89° C | 92% | 1010.4 hPa | 0 mm | 0 m/s | 0 W/m² | - |
| 1777973224 | 13.89° C | 92% | 1010.6 hPa | 0 mm | 0.45 m/s, 308° | 0 W/m² | - |
| 1777972923 | 13.89° C | 91% | 1010.5 hPa | 0 mm | 0 m/s | 0 W/m² | - |
* Rain latest hour (hover to see other rain measurements)
** Current wind speed in m/s (hover to see current wind gust speed)